{"data":{"norad_id":64671,"epoch":"2026-09-20T09:36:56.966976Z","epoch_age_seconds":140141,"freshness":"FRESH","line1":"1 64671U 25139H   26263.40065934  .00012874  00000+0  39158-3 0  9994","line2":"2 64671  53.1604 298.4863 0001436  92.7071 267.4096 15.34393619 70213","mean_motion":15.34393619,"eccentricity":0.0001436,"inclination_deg":53.1604,"raan_deg":298.4863,"arg_perigee_deg":92.7071,"mean_anomaly_deg":267.4096,"bstar":0.00039158,"rev_number":7021,"period_min":93.848148360945,"perigee_km":461.73985856759,"apogee_km":463.70455333154,"semimajor_km":6840.8592059496,"source":"CELESTRAK","updated_at":"2026-09-21T09:00:35.398179Z"}}